"Pseudo-MPEC" for P117U2u

Created 2020 Oct 19 5:07:31 UT using Find_Orb

Click here for an explanation of pseudo-MPECs

 
 Astrometry: 
     P117U2u  C2020 10 14Z_r,Kc9M+]UJ=U;^6EG0Y];M^rr_v-?[%%aC?4(ViRsxGWh!W6ejF51
     P117U2u  C2020 10 14M=eAstrometryR5J(wCI%EBm'x\Yr4[)\`l*?(G^57.redacted;F51
     P117U2u  C2020 10 14=4,[j/`jQ-q)i+UWf_Zy$*a+^vBG90SO!ikmwbP@m,x3k26Dln(lF51
     P117U2u  C2020 10 15U4QQ0REA_tv!cAn:]x[+*3Oy.tk#^X6id!A/BZ]r[9);v'P'2cabF51
     P117U2u  C2020 10 15b5-e8Ex(4)/K%ibwJb6-#g5SHGpHb21x@P6e(rTD=I'-1%1to?Q6F51
     P117U2u  C2020 10 15T__clickUUaqBLoW_[92i^4-ao:sN%GDDx4R7MaGi3i;\_Lv@f.0F51
     P117U2u  C2020 10 17$B=ek1^@6_5here8RAO]vIpedRJkNEforW\U[XLJ]_jMx.6:^ftAF51
     P117U2u  C2020 10 17C7\bi`S+dT:y3fy7#8'+7iGM]_m2dUqFqa,JYl4g,gMgk*%L5;7DF51
     P117U2u  C2020 10 18SvkeWUtN!l5bHT+6`rjg_\r?.a[$RY1OKv,ZpZ6bJxYLRblj-Z*CF51
     P117U2u  C2020 10 18,IQG^/@)Cpi#explanationAIm)MkC4j%#$/F0XR1p;14\n1,]iMF51

Station data:
(F51) Pan-STARRS 1, Haleakala  (N20.707235 W156.255910)  US/Hawaii.
   Observers N. Primak, A. Schultz, S. Watters, J. Thiel, T. Goggia. Measurer
   PS1 Science Consortium. 1.8-m Ritchey-Chrétien + CCD.

Orbital elements:  P117U2u
   Perihelion 2020 Sep 1.313053 +/- 13.8 TT =  7:30:47 (JD 2459093.813053)
Epoch 2020 Oct 18.0 TT = JDT 2459140.5   Earth MOID: 0.6185   AutoNEOCP
M  21.89508701 +/- 6                (J2000 ecliptic)
n   0.46897663 +/- 0.00392          Peri.  300.59777 +/- 7
a   1.64072292 +/- 0.00915          Node    61.16948 +/- 0.35
e   0.0347907 +/- 0.00171           Incl.   22.19241 +/- 0.36
P   2.10/767.61d           H 21.6   G  0.15   U  9.0  
q 1.58364099 +/- 0.0113    Q 1.69780485 +/- 0.00708
From 10 observations 2020 Oct. 14-18; mean residual 0".10
Residuals in arcseconds: 
201014 F51  .05-  .01+    201015 F51  .09-  .12+    201018 F51  .07-  .01+    
201014 F51  .14-  .08+    201015 F51  .07+  .17-    201018 F51  .03+  .04-    
201014 F51  .26+  .03-    201017 F51  .13+  .05+    
201015 F51  .10-  .08-    201017 F51  .04-  .03+    

Ephemerides (geocentric):
Date (UTC) HH   RA              Dec         delta   r     elong  mag " sig PA
---- -- -- --  -------------   -----------  ------ ------ -----  --- ---- ---
2020 10 19 05  02 41 05.004   -18 08 30.56  .65492 1.5883 147.6 22.7 .581  10
2020 10 19 06  02 41 00.135   -18 08 02.12  .65484 1.5883 147.6 22.7 .602  11
2020 10 19 07  02 40 55.262   -18 07 33.61  .65477 1.5883 147.7 22.7 .623  11
2020 10 19 08  02 40 50.386   -18 07 05.03  .65470 1.5883 147.7 22.7 .645  11
2020 10 19 09  02 40 45.507   -18 06 36.38  .65463 1.5883 147.7 22.7 .667  11
2020 10 19 10  02 40 40.626   -18 06 07.66  .65456 1.5883 147.7 22.7 .689  12
2020 10 19 11  02 40 35.741   -18 05 38.86  .65449 1.5883 147.7 22.7 .712  12
2020 10 19 12  02 40 30.854   -18 05 10.00  .65442 1.5883 147.8 22.7 .735  12
2020 10 19 13  02 40 25.964   -18 04 41.06  .65435 1.5883 147.8 22.7 .758  12
2020 10 19 14  02 40 21.070   -18 04 12.05  .65428 1.5883 147.8 22.7 .782  13
2020 10 19 15  02 40 16.175   -18 03 42.98  .65422 1.5884 147.8 22.7 .806  13
2020 10 19 16  02 40 11.276   -18 03 13.83  .65415 1.5884 147.9 22.7 .830  13
2020 10 19 17  02 40 06.374   -18 02 44.61  .65408 1.5884 147.9 22.7 .855  13
2020 10 19 18  02 40 01.470   -18 02 15.31  .65401 1.5884 147.9 22.7 .880  14
2020 10 19 19  02 39 56.563   -18 01 45.95  .65395 1.5884 147.9 22.7 .906  14
2020 10 19 20  02 39 51.653   -18 01 16.51  .65388 1.5884 147.9 22.7 .931  14
2020 10 19 21  02 39 46.740   -18 00 47.01  .65381 1.5884 148.0 22.7 .957  14
2020 10 19 22  02 39 41.825   -18 00 17.43  .65375 1.5884 148.0 22.7 .984  15
2020 10 19 23  02 39 36.907   -17 59 47.78  .65368 1.5884 148.0 22.7 1.01  15
2020 10 20 00  02 39 31.986   -17 59 18.06  .65362 1.5884 148.0 22.7 1.04  15
2020 10 20 01  02 39 27.062   -17 58 48.27  .65355 1.5884 148.1 22.7 1.06  15
2020 10 20 02  02 39 22.136   -17 58 18.41  .65349 1.5884 148.1 22.7 1.09  15
2020 10 20 03  02 39 17.207   -17 57 48.47  .65342 1.5885 148.1 22.7 1.12  16
2020 10 20 04  02 39 12.276   -17 57 18.46  .65336 1.5885 148.1 22.7 1.15  16
2020 10 20 05  02 39 07.341   -17 56 48.39  .65329 1.5885 148.1 22.7 1.18  16
2020 10 20 06  02 39 02.405   -17 56 18.24  .65323 1.5885 148.2 22.7 1.21  16
2020 10 20 07  02 38 57.465   -17 55 48.02  .65317 1.5885 148.2 22.7 1.24  16
2020 10 20 08  02 38 52.523   -17 55 17.72  .65310 1.5885 148.2 22.7 1.27  17
2020 10 20 09  02 38 47.579   -17 54 47.36  .65304 1.5885 148.2 22.7 1.30  17
2020 10 20 10  02 38 42.632   -17 54 16.92  .65298 1.5885 148.2 22.7 1.33  17
2020 10 20 11  02 38 37.682   -17 53 46.42  .65292 1.5885 148.3 22.7 1.36  17
2020 10 20 12  02 38 32.730   -17 53 15.84  .65286 1.5885 148.3 22.7 1.39  17
2020 10 20 13  02 38 27.775   -17 52 45.19  .65280 1.5885 148.3 22.7 1.42  17
2020 10 20 14  02 38 22.818   -17 52 14.46  .65274 1.5885 148.3 22.7 1.45  18
2020 10 20 15  02 38 17.858   -17 51 43.67  .65268 1.5885 148.3 22.7 1.48  18
2020 10 20 16  02 38 12.896   -17 51 12.80  .65262 1.5886 148.4 22.7 1.52  18
2020 10 20 17  02 38 07.931   -17 50 41.87  .65256 1.5886 148.4 22.7 1.55  18
2020 10 20 18  02 38 02.964   -17 50 10.86  .65250 1.5886 148.4 22.7 1.58  18
2020 10 20 19  02 37 57.995   -17 49 39.78  .65244 1.5886 148.4 22.7 1.62  19
2020 10 20 20  02 37 53.023   -17 49 08.62  .65238 1.5886 148.4 22.7 1.65  19
2020 10 20 21  02 37 48.049   -17 48 37.40  .65232 1.5886 148.5 22.7 1.69  19
2020 10 20 22  02 37 43.072   -17 48 06.10  .65226 1.5886 148.5 22.7 1.72  19
2020 10 20 23  02 37 38.093   -17 47 34.73  .65221 1.5886 148.5 22.7 1.75  19
2020 10 21 00  02 37 33.112   -17 47 03.29  .65215 1.5886 148.5 22.7 1.79  19
2020 10 21 01  02 37 28.128   -17 46 31.78  .65209 1.5886 148.5 22.7 1.83  19
2020 10 21 02  02 37 23.142   -17 46 00.20  .65203 1.5886 148.6 22.7 1.86  20
2020 10 21 03  02 37 18.153   -17 45 28.54  .65198 1.5886 148.6 22.7 1.90  20
2020 10 21 04  02 37 13.163   -17 44 56.82  .65192 1.5887 148.6 22.7 1.94  20